Regional Weather Roundup
Issued by NWS

Home | Current Version | Previous Version | Text Only | Print | Product List | Glossary On
Versions: 1 2 3 4 5 6 7 8 9 10 11 12 13 14 15 16 17 18 19 20 21 22 23 24 25 26 27 28 29 30 31 32 33 34 35 36 37 38 39 40 41 42 43 44 45 46 47 48 49 50
325
ASUS43 KDMX 270303
RWRIA

WEATHER ROUNDUP FOR IOWA
NATIONAL WEATHER SERVICE DES MOINES IA
1000 PM CDT FRI AUG 26 2016

NOTE: "FAIR" INDICATES FEW OR NO CLOUDS BELOW 12,000 FEET WITH NO
SIGNIFICANT WEATHER AND/OR OBSTRUCTIONS TO VISIBILITY.

* - THESE STATIONS ARE NOT NWS STATIONS...THUS NOT UNDER NWS
QUALITY CONTROL.  THEY ALSO DO NOT REPORT WEATHER SUCH
AS PRECIPITATION OR FOG.

IAZ001>003-012>014-020>022-031>034-043>046-270400-
   NORTHWEST IOWA

CITY           SKY/WX    TMP DP  RH WIND       PRES   REMARKS
CARROLL *      CLOUDY    63  61  94 E7        30.10R
CHEROKEE *     CLOUDY    65  62  90 E6        30.10S
DENISON *      CLOUDY    64  61  88 E8        30.07S FOG
LE MARS *      CLOUDY    66  61  82 SE5       30.09S
ORANGE CITY *  CLOUDY    66  63  88 E6        30.09S
SHELDON *      CLOUDY    63  61  94 E8        30.08S
SIOUX CITY     CLOUDY    65  60  84 E9        30.07S
SPENCER        CLOUDY    64  60  87 E8        30.11S
STORM LAKE *   CLOUDY    64  61  88 E7        30.11S
$$

IAZ055>058-069>071-079>083-090>094-270400-
   SOUTHWEST IOWA

CITY           SKY/WX    TMP DP  RH WIND       PRES   REMARKS
ATLANTIC *     LGT RAIN  66  64  94 E5G12     30.08R
AUDUBON *      CLOUDY    64  61  88 E6        30.10S
CLARINDA *       N/A     68  68 100 MISG      30.07S
COUNCIL BLFS * CLOUDY    66  64  94 E7        30.07R
CRESTON *      CLOUDY    66  66 100 E8        30.07F
HARLAN  *      CLOUDY    66  64  94 E6        30.11S
LAMONI         RAIN      68  68 100 NE9       30.04F FOG
RED OAK *      CLOUDY    68  66  94 NE5       30.07R
SHENANDOAH *   MOCLDY    66 -40   1 CALM      30.07R
$$

IAZ047>049-059>061-072>074-084-270400-
   CENTRAL IOWA

CITY           SKY/WX    TMP DP  RH WIND       PRES   REMARKS
AMES           HVY RAIN  62  62 100 NE7       30.11R FOG
ANKENY *         N/A    N/A N/A N/A MISG        N/A
BOONE *          N/A     61  59  94 E12       30.10S
CHARITON *     LGT RAIN  68  66  94 MISG      30.06F
DES MOINES     LGT RAIN  67  64  90 E9        30.07S
GRINNELL*      LGT RAIN  65  62  91 NE6       30.10R
KNOXVILLE *    LGT RAIN  68  64  88 NE6       30.06F
MARSHALLTOWN   LGT RAIN  61  60  97 NE12      30.10F
NEWTON *       CLOUDY    64  64 100 NE7       30.09S
PELLA *        RAIN      67  65  93 E3        30.09R
PERRY *        DRIZZLE   64  63  97 E8        30.09S
$$

IAZ004>006-015-016-023>025-035-036-270400-
   NORTH CENTRAL IOWA

CITY           SKY/WX    TMP DP  RH WIND       PRES   REMARKS
ALGONA *       CLOUDY    64  61  88 E6        30.12S
ESTHERVILLE    CLOUDY    62  61  96 E6        30.11S
FORT DODGE *   CLOUDY    63  55  77 E7        30.12S
MASON CITY     CLOUDY    63  61  93 CALM      30.14S
FOREST CITY *    N/A    N/A N/A N/A MISG        N/A
WEBSTER CITY * CLOUDY    63  59  88 E9        30.09S
IOWA FALLS *   RAIN      61  58  90 E8        30.14S
$$

IAZ007>011-017>019-026>030-037>042-050>054-066-270400-
   NORTHEAST IOWA

CITY           SKY/WX    TMP DP  RH WIND       PRES   REMARKS
CEDAR RAPIDS   CLOUDY    68  64  87 NE8       30.08F
CHARLES CITY * CLOUDY    64  64 100 E7        30.13F
CLINTON *      MOCLDY    68  66  93 NE7       30.09F
DECORAH *      CLOUDY    63  63 100 CALM      30.14S
DUBUQUE        CLOUDY    66  61  84 NE9       30.13F
MONTICELLO *   CLOUDY    66  61  82 NE6       30.10F
OELWEIN *      CLOUDY    63  61  94 NE6       30.13F
WATERLOO       CLOUDY    62  58  86 N8        30.12R
$$

IAZ064-065-067-068-078-270400-
   EAST CENTRAL IOWA

CITY           SKY/WX    TMP DP  RH WIND       PRES   REMARKS
DAVENPORT      CLOUDY    70  64  81 E7        30.08F
IOWA CITY      CLOUDY    71  63  75 NE8       30.09F
MT. PLEASANT * CLOUDY    74  69  85 NE5       30.06F
MUSCATINE *    CLOUDY    73  64  73 NE5       30.07F
QUAD CITIES    CLOUDY    73  64  73 E9        30.07F
$$

IAZ062-063-075>077-085>089-095>099-270400-
   SOUTHEAST IOWA

CITY           SKY/WX    TMP DP  RH WIND       PRES   REMARKS
BURLINGTON     CLOUDY    73  71  93 NE5       30.04F
FAIRFIELD *    CLOUDY    70  64  83 NE7       30.06F
FORT MADISON * MOCLDY    72  70  94 CALM      30.06F
KEOKUK *       CLOUDY    73  72  94 NE5       30.02F
OSKALOOSA *    MOCLDY    69  65  88 E6        30.07S
CENTERVILLE *    N/A     72  68  88 CALM      30.08R
OTTUMWA        CLOUDY    71  65  81 E7        30.05F
WASHINGTON *   CLOUDY    70  66  88 NE6       30.08F
$$

ABBREVIATIONS USED IN REMARKS
   TC - TEMPERATURES IN CELSIUS
  WCI - WIND CHILL INDEX
   HX - HEAT INDEX
  VSB - VISIBILITY
$$





USA.gov is the U.S. government's official web portal to all federal, state and local government web resources and services.